Location: Sweet Grass
(48.9965°N, 111.9649°W)
Time: 07:52:56
(UTC+00:00)

N. Korean satellite - Pass Details

Date: 07 December 2022
Orbit: 407 x 442 km, 97.3° (Epoch: 04 February)

Event Time Altitude Azimuth Distance (km) Brightness Sun altitude
Rises 12:26:56 0° 19° (NNE) 2,511 10.3 -25.3°
Reaches altitude 10° 12:29:06 10° 27° (NNE) 1,624 9.4 -25.0°
Maximum altitude 12:32:23 39° 98° (E) 704 7.8 -24.4°
Drops below altitude 10° 12:35:36 10° 169° (S) 1,584 9.4 -23.9°
Sets 12:37:42 0° 177° (S) 2,440 10.3 -23.6°
